Skip Page Navigation
NASA JPL Caltech
NASA Logo - Jet Propulsion Laboratory + View the NASA Portal
+ Center for Near-Earth Object Studies
JPL Home Earth Solar System Stars & Galaxies Technology
JPL Solar System Dynamics
BODIES ORBITS EPHEMERIDES TOOLS PHYSICAL DATA DISCOVERY FAQ SITE MAP
IMPORTANT: The SSD Announcement email list is now available. Major changes are coming in the near future, including possible hostname and/or URL changes. To be notified of such changes, subscribe to this email list.

Please visit this page for more details.


JPL Small-Body Database Browser
Search: [ help ]  
214238 (2005 ES182)
Classification: Main-belt Asteroid          SPK-ID: 2214238
Ephemeris | Orbit Diagram | Orbital Elements | Mission Design | Physical Parameters | Discovery Circumstances | Close-Approach Data ]

[ show orbit diagram ]
Orbital Elements at Epoch 2458600.5 (2019-Apr-27.0) TDB
Reference: JPL 15 (heliocentric ecliptic J2000)
 Element Value Uncertainty (1-sigma)   Units 
e .1776282473536089 4.5918e-08  
a 2.422972485847373 1.7458e-08 au
q 1.992584129800287 1.0846e-07 au
i 3.12088859764983 4.0791e-06 deg
node 44.34574987672677 0.00010213 deg
peri 33.81453463744057 0.00010309 deg
M 343.3013182606544 1.6342e-05 deg
tp 2458664.399996951566
(2019-Jun-29.89999695)
6.2964e-05 TDB
period 1377.593708392046
3.77
1.4889e-05
4.076e-08
d
yr
n .2613252353048265 2.8244e-09 deg/d
Q 2.853360841894459 2.0559e-08 au
  Orbit Determination Parameters
   # obs. used (total)      327  
   data-arc span      6448 days (17.65 yr)  
   first obs. used      2001-01-19  
   last obs. used      2018-09-15  
   planetary ephem.      DE431  
   SB-pert. ephem.      SB431-N16  
   condition code      0  
   norm. resid. RMS      .57501  
   source      ORB  
   producer      Otto Matic  
   solution date      2018-Oct-03 12:13:17  

Additional Information
 Earth MOID = 1.00876 au 
 Jupiter MOID = 2.39957 au 
 T_jup = 3.489 
[ hide covariance matrix ]
Orbital Elements at Epoch 2456850.5 (2014-Jul-12.0) TDB
Reference: JPL 15 (heliocentric ecliptic J2000)
 Element Value Uncertainty (1-sigma)   Units 
e .1763324701032586 4.5982e-08  
q 1.996287553788817 1.085e-07 au
tp 2457286.741043043942
(2015-Sep-21.24104304)
5.5603e-05 TDB
node 44.36863227646864 0.0001022 deg
peri 33.81619963536206 0.00010317 deg
i 3.120388445115379 4.0749e-06 deg
  Orbit Determination Parameters
   # obs. used (total)      327  
   data-arc span      6448 days (17.65 yr)  
   first obs. used      2001-01-19  
   last obs. used      2018-09-15  
   planetary ephem.      DE431  
   SB-pert. ephem.      SB431-N16  
   condition code      0  
   norm. resid. RMS      .57501  
   source      ORB  
   producer      Otto Matic  
   solution date      2018-Oct-03 12:13:17  

Additional Information
 Jupiter MOID = 2.39957 au 
 T_jup = 3.489 
Orbit Covariance (6×6)
  e q tp node peri i
e 2.11432798386493E-15 -4.947871728500957E-15 1.184245385208163E-12 3.772038644472635E-14 2.851227155863412E-13 -1.526827569288113E-15
q -4.947871728500957E-15 1.17730206778917E-14 -2.513784922918958E-12 -8.506356027564039E-14 -6.169732124739042E-13 3.70413518533475E-15
tp 1.184245385208163E-12 -2.513784922918958E-12 3.091746312783328E-9 3.812294864608396E-11 8.231188018090841E-10 -1.109868766458759E-12
node 3.772038644472635E-14 -8.506356027564039E-14 3.812294864608396E-11 1.044388255683565E-8 -1.041797732293479E-8 9.281200608829691E-11
peri 2.851227155863412E-13 -6.169732124739042E-13 8.231188018090841E-10 -1.041797732293479E-8 1.064469396811846E-8 -9.300340273195167E-11
i -1.526827569288113E-15 3.70413518533475E-15 -1.109868766458759E-12 9.281200608829691E-11 -9.300340273195167E-11 1.660461857788713E-11

Ephemeris | Orbit Diagram | Orbital Elements | Mission Design | Physical Parameters | Discovery Circumstances | Close-Approach Data ]

Physical Parameter Table
Parameter Symbol Value Units Sigma Reference Notes
absolute magnitude H 16.8   n/a MPO454538  

214238 (2005 ES182)          Discovered 2005-Mar-09 by LINEAR at Socorro
Reference: 20090509/Numbers.arcLast Updated: 2009-05-11

[ show close-approach data ]
Ephemeris | Orbit Diagram | Orbital Elements | Mission Design | Physical Parameters | Discovery Circumstances | Close-Approach Data ]
ABOUT SSD CREDITS/AWARDS PRIVACY/COPYRIGHT GLOSSARY LINKS
FirstGov 2020-Jan-27 09:11 UT
(server date/time)  
NASA Home Page
Site Manager:   Ryan S. Park
Webmaster  Alan B. Chamberlin